This is the latest recevied weather packets stored in our database for station/object OH6GKW. If no packets are shown the sender has not sent any weather packets the latest 1 day(s).
| Time | Temp. | Humidity | Pressure | Rain* | Wind** | Luminosity | Snow |
|---|---|---|---|---|---|---|---|
| 1778006338 | 6.67° C | 52% | 999.8 hPa | 0.51 mm | 1.79 m/s, 261° | 12 W/m² | - |
| 1778006032 | 6.67° C | 51% | 999.8 hPa | 0.51 mm | 1.79 m/s, 298° | 19 W/m² | - |
| 1778005721 | 6.67° C | 51% | 999.6 hPa | 0.51 mm | 1.79 m/s, 248° | 25 W/m² | - |
| 1778005411 | 7.22° C | 50% | 999.6 hPa | 0.51 mm | 1.34 m/s, 227° | 37 W/m² | - |
| 1778005127 | 7.22° C | 50% | 999.6 hPa | 0.51 mm | 1.34 m/s, 227° | 46 W/m² | - |
| 1778004816 | 7.22° C | 49% | 999.6 hPa | 0.51 mm | 1.34 m/s, 255° | 55 W/m² | - |
| 1778004522 | 7.22° C | 50% | 999.6 hPa | 0.51 mm | 1.34 m/s, 202° | 62 W/m² | - |
| 1778003937 | 7.22° C | 50% | 999.4 hPa | 0.51 mm | 1.79 m/s, 261° | 91 W/m² | - |
| 1778003632 | 7.22° C | 50% | 999.4 hPa | 0.51 mm | 1.34 m/s, 248° | 51 W/m² | - |
| 1778003323 | 7.78° C | 50% | 999.4 hPa | 0.51 mm | 1.34 m/s, 240° | 55 W/m² | - |
| 1778003016 | 7.78° C | 50% | 999.4 hPa | 0.51 mm | 2.24 m/s, 247° | 83 W/m² | - |
| 1778002728 | 7.78° C | 50% | 999.4 hPa | 0.51 mm | 2.68 m/s, 268° | 116 W/m² | - |
| 1778002422 | 7.78° C | 51% | 999.4 hPa | 0.51 mm | 2.68 m/s, 303° | 153 W/m² | - |
| 1778002112 | 7.78° C | 51% | 999.2 hPa | 0.51 mm | 2.68 m/s, 250° | 167 W/m² | - |
| 1778001824 | 7.78° C | 51% | 999.2 hPa | 0.51 mm | 2.24 m/s, 265° | 153 W/m² | - |
| 1778001515 | 7.22° C | 51% | 999.2 hPa | 0.51 mm | 2.24 m/s, 255° | 187 W/m² | - |
| 1778001210 | 7.22° C | 51% | 999.1 hPa | 0.51 mm | 1.79 m/s, 244° | 99 W/m² | - |
| 1778000933 | 7.22° C | 52% | 999.1 hPa | 0.51 mm | 2.24 m/s, 234° | 84 W/m² | - |
| 1778000627 | 7.22° C | 52% | 999.1 hPa | 0.51 mm | 2.68 m/s, 259° | 63 W/m² | - |
| 1778000316 | 7.78° C | 52% | 999.1 hPa | 0.51 mm | 2.68 m/s, 211° | 58 W/m² | - |
| 1778000009 | 7.78° C | 51% | 999.1 hPa | 0.51 mm | 2.68 m/s, 262° | 56 W/m² | - |
| 1777999721 | 8.33° C | 49% | 999.1 hPa | 0.51 mm | 2.24 m/s, 223° | 62 W/m² | - |
| 1777999417 | 8.89° C | 49% | 999.1 hPa | 0.51 mm | 2.24 m/s, 195° | 86 W/m² | - |
| 1777999112 | 8.89° C | 49% | 999.1 hPa | 0.51 mm | 2.24 m/s, 255° | 195 W/m² | - |
| 1777998824 | 8.89° C | 49% | 999.1 hPa | 0.51 mm | 3.13 m/s, 200° | 225 W/m² | - |
* Rain since midnight (hover to see other rain measurements)
** Current wind speed in m/s (hover to see current wind gust speed)